Terug naar catalogus

COSMOS 792

ActiefMilitairLEO
NORAD 8608·PAYLOAD·🇷🇺 Russia

Gelanceerd Jan 28, 1976 vanaf Plesetsk Cosmodrome

Loading…

Volgende Passages (komende 24 uur)

TLE

VersSource: Space-Track

Epoch: Sep 14, 2026, 08:49 UTC

1 08608U 76008B   26257.36770876 -.00000023  00000-0 -49037-4 0  9993
2 08608  74.0531 226.2245 0035117 347.3213 180.4905 12.50422674311046

Volg COSMOS 792 in realtime met AllMySat

Download on the App Store